All Spectrum Aviation - Van Nuys Airport - KVNY

HOME

Condor Squadron KVNY Webcam

Visit our Electronics Store

Condor Squadron Webcam - Van Nuys Airport - KVNY
Picture taken: Sun, 10 May 2020 10:59:00 -0700
YouTube Channel!    Latest Timelapse Movie    Full Size Image    Regular Size Image    

2020/05/26 19:51 KVNY 261951Z AUTO 10003KT 10SM CLR 33/10 A2988 RMK AO2 SLP109 T03330100

HOME

Condor Squadron KVNY Webcam

Visit our Electronics Store